User: anonymous   Login
Location: Lawrence Hall of Science
(37.8785°N, 122.2415°W)
Time: 20:39:33
(UTC-07:00)
Language:

Cosmos 2098 Rocket - Orbit

View from above orbital plane
View from above orbital plane
View from above satellite
View from above satellite

Ground track
Ground track

The orbit data is extracted from the following two-line orbital elements,

1 20775U 90078B   17175.15982438 +.00001384 +00000-0 +68816-4 0  9995
2 20775 082.9291 042.4880 0587586 320.9049 035.1016 14.30668748349779
Epoch (UTC): 24 June 2017 03:50:08
Eccentricity: 0.0587586
inclination: 82.9291°
perigee height: 368 km
apogee height: 1210 km
right ascension of ascending node: 42.4880°
argument of perigee: 320.9049°
revolutions per day: 14.30668748
mean anomaly at epoch: 35.1016°
orbit number at epoch: 34977

The dashed part of the orbit path shows where the satellite is in the earth's shadow,  

DLR